Regional Weather Roundup
Issued by NWS

Home | Current Version | Previous Version | Text Only | Print | Product List | Glossary Off
Versions: 1 2 3 4 5 6 7 8 9 10 11 12 13 14 15 16 17 18 19 20 21 22 23 24 25 26 27 28 29 30 31 32 33 34 35 36 37 38 39 40 41 42 43 44 45 46 47 48 49 50

000
ASUS43 KFSD 221902
RWRSD

WEATHER ROUNDUP FOR SOUTH DAKOTA
NATIONAL WEATHER SERVICE SIOUX FALLS SD
200 PM CDT TUE AUG 22 2017

NOTE: "FAIR" INDICATES FEW OR NO CLOUDS BELOW 12,000 FEET WITH NO
SIGNIFICANT WEATHER AND/OR OBSTRUCTIONS TO VISIBILITY.


SDZ001>005-009-010-012>017-222000-
NORTHWEST AND NORTH CENTRAL SOUTH DAKOTA

CITY           SKY/WX    TMP DP  RH WIND       PRES   REMARKS
BUFFALO          N/A     81  41  24 S12       30.13F
FAITH            N/A     79  41  25 MISG      30.19F
MOBRIDGE       SUNNY     75  47  36 NW3       30.17F
$$

SDZ012>016-024>037-041>051-057-063-072>074-222000-
SOUTHWEST AND SOUTH CENTRAL SOUTH DAKOTA

CITY           SKY/WX    TMP DP  RH WIND       PRES   REMARKS
RAPID CTY ARPT SUNNY     81  44  27 S13G22    30.19F
PIERRE         SUNNY     75  43  31 NW6       30.19F
CUSTER         SUNNY     71  43  36 S7        30.31F
ELLSWORTH AFB  SUNNY     82  44  27 S14       30.18F
PHILIP         SUNNY     82  44  26 S10G18    30.18F
PINE RIDGE     SUNNY     82  44  26 S13       30.23
SPEARFISH      FAIR      77  41  27 NE9       30.22F
WINNER         FAIR      76  49  38 S6        30.23F
$$

SDZ004>011-016>023-039-040-222000-
NORTHEAST SOUTH DAKOTA

CITY           SKY/WX    TMP DP  RH WIND       PRES   REMARKS
ABERDEEN       SUNNY     76  42  29 NW13      30.16F
WATERTOWN      SUNNY     71  46  40 NW15G25   30.16F
BROOKINGS      SUNNY     70  47  43 NW14      30.18S
SISSETON         N/A     73  48  41 NW16      30.12F
$$

SDZ017-020-022-023-036>040-048>070-222000-
SOUTHEAST SOUTH DAKOTA

CITY           SKY/WX    TMP DP  RH WIND       PRES   REMARKS
SIOUX FALLS    MOSUNNY   73  51  46 N14G22    30.18S
HURON          SUNNY     75  48  38 NW7       30.17F
CHAMBERLAIN    SUNNY     76  50  39 SW8       30.21F
MITCHELL       SUNNY     76  44  32 N10       30.19F
YANKTON        SUNNY     74  47  38 N14       30.20F
$$

ABBREVIATIONS USED IN REMARKS
   TC - TEMPERATURE IN CELSIUS
  WCI - WIND CHILL INDEX
   HX - HEAT INDEX
  VSB - VISIBILITY





USA.gov is the U.S. government's official web portal to all federal, state and local government web resources and services.